Vancouver, British Columbia

9:55 AM PST on February 21, 2017 (GMT -0800)
Vancouver International Airport

Weather History for CYVR - January, 2014

Change the Weather History Date:

Tuesday, January 21, 2014

  Actual Average Record
Temperature  
Mean Temperature 36 °F -  
Max Temperature 43 °F 45 °F 55 °F (2005)
Min Temperature 30 °F 34 °F 24 °F (2008)
Degree Days  
Heating Degree Days 28    
Moisture  
Dew Point 37 °F    
Average Humidity 96    
Maximum Humidity 100    
Minimum Humidity 76    
Precipitation  
Precipitation 0.00 in 0.17 in - ()
Sea Level Pressure  
Sea Level Pressure 30.29 in    
Wind  
Wind Speed 3 mph ()    
Max Wind Speed 9 mph    
Max Gust Speed -    
Visibility 4.6 miles    
Events Fog    
Averages and records for this station are not official NWS values.
T = Trace of Precipitation, MM = Missing Value Source: Averaged Metar Reports

Daily Weather History Graph

Daily Weather History Graph

Search for Another Location

Airport or City:

Trip Planner

Search our weather history database for the weather conditions in past years. The results will help you decide how hot, cold, wet, or windy it might be!

Date:

Astronomy

Jan. 21, 2014 Rise Set
Actual Time 7:56 AM PST 4:51 PM PST
Civil Twilight 7:21 AM PST 5:27 PM PST
Nautical Twilight 6:42 AM PST 6:06 PM PST
Astronomical Twilight 6:04 AM PST 6:44 PM PST
Moon 11:04 PM PST 9:57 AM PST
Length of Visible Light 10h 06m
Length of Day
8h 55m
Waning Gibbous, 73% of the Moon is Illuminated
Jan 21
Waning Gibbous
Jan 23
Last Quarter
Jan 30
New
Feb 6
First Quarter
Feb 14
Full

Hourly Weather History & Observations

Time (PST) Temp. Windchill Dew Point Humidity Pressure Visibility Wind Dir Wind Speed Gust Speed Precip Events Conditions
12:00 AM 35.6 °F 30.7 °F 35.6 °F 100% 30.33 in 15.0 mi NNW 5.8 mph - N/A   Partly Cloudy
12:08 AM 35.6 °F 30.7 °F 35.6 °F 100% 30.33 in 10.0 mi NW 5.8 mph - N/A   Mostly Cloudy
12:29 AM 35.6 °F 31.7 °F 35.6 °F 100% 30.32 in 10.0 mi NW 4.6 mph - N/A   Scattered Clouds
1:00 AM 33.8 °F 30.8 °F 33.8 °F 100% 30.31 in 10.0 mi North 3.5 mph - N/A   Scattered Clouds
1:46 AM 33.8 °F 29.6 °F 33.8 °F 100% 30.31 in 2.0 mi East 4.6 mph - N/A   Mostly Cloudy
1:53 AM 33.8 °F 29.6 °F 32.0 °F 93% 30.30 in 1.0 mi East 4.6 mph - N/A   Mostly Cloudy
2:00 AM 33.8 °F 30.8 °F 33.8 °F 100% 30.31 in 0.8 mi ENE 3.5 mph - N/A   Mostly Cloudy
2:09 AM 33.8 °F 30.8 °F 33.8 °F 100% 30.31 in 0.2 mi East 3.5 mph - N/A Fog Fog
3:00 AM 32.0 °F 26.4 °F 32.0 °F 100% 30.31 in 0.2 mi East 5.8 mph - N/A Fog Fog
4:00 AM 33 °F - 32 °F 94% 30.30 in 0 mi Calm Calm - - Fog Partial Fog
4:00 AM 32.0 °F 28.7 °F 32.0 °F 100% 30.30 in 0.5 mi East 3.5 mph - N/A Fog Fog
4:38 AM 33.8 °F 30.8 °F 33.8 °F 100% 30.30 in 0.2 mi East 3.5 mph - N/A Fog Fog
5:00 AM 33.8 °F - 33.8 °F 100% 30.30 in 0.2 mi Calm Calm - N/A Fog Fog
5:27 AM 33.8 °F - 33.8 °F 100% 30.30 in 0.5 mi Calm Calm - N/A Fog Fog
5:44 AM 33.8 °F - 33.8 °F 100% 30.30 in 0.8 mi Calm Calm - N/A   Mist
6:00 AM 35.6 °F 32.8 °F 33.8 °F 93% 30.29 in 0.8 mi East 3.5 mph - N/A   Mist
6:04 AM 33.8 °F 30.8 °F 33.8 °F 100% 30.29 in 1.5 mi East 3.5 mph - N/A   Overcast
6:26 AM 35.6 °F 32.8 °F 35.6 °F 100% 30.29 in 2.0 mi East 3.5 mph - N/A   Overcast
6:40 AM 35.6 °F 32.8 °F 35.6 °F 100% 30.28 in 0.6 mi East 3.5 mph - N/A   Overcast
6:45 AM 35.6 °F 32.8 °F 35.6 °F 100% 30.28 in 0.5 mi East 3.5 mph - N/A Fog Fog
6:52 AM 35.6 °F - 35.6 °F 100% 30.28 in 0.4 mi Calm Calm - N/A Fog Fog
7:00 AM 37.4 °F - 35.6 °F 93% 30.29 in 0.4 mi Calm Calm - N/A Fog Fog
7:25 AM 37.4 °F 32.1 °F 37.4 °F 100% 30.30 in 0.5 mi West 6.9 mph - N/A Fog Fog
7:39 AM 37.4 °F 34.9 °F 37.4 °F 100% 30.29 in 0.6 mi West 3.5 mph - N/A   Mostly Cloudy
7:41 AM 37.4 °F - 37.4 °F 100% 30.29 in 1.0 mi SW 2.3 mph - N/A   Overcast
7:52 AM 37.4 °F - 37.4 °F 100% 30.29 in 0.8 mi Calm Calm - N/A   Overcast
8:00 AM 37.4 °F 34.9 °F 37.4 °F 100% 30.30 in 0.8 mi NW 3.5 mph - N/A   Overcast
8:13 AM 37.4 °F - 37.4 °F 100% 30.30 in 0.4 mi Calm Calm - N/A Fog Fog
8:24 AM 37.4 °F - 37.4 °F 100% 30.29 in 0.5 mi North 2.3 mph - N/A Fog Fog
8:44 AM 37.4 °F - 37.4 °F 100% 30.30 in 0.4 mi Calm Calm - N/A Fog Fog
9:00 AM 37.4 °F - 37.4 °F 100% 30.29 in 0.2 mi ENE 2.3 mph - N/A Fog Fog
9:06 AM 37.4 °F - 37.4 °F 100% 30.29 in 0.1 mi Calm Calm - N/A Fog Fog
9:43 AM 37.4 °F 34.9 °F 37.4 °F 100% 30.30 in 0.0 mi ESE 3.5 mph - N/A Fog Fog
10:00 AM 38 °F - 37 °F 97% 30.30 in 0 mi Calm Calm - - Fog Partial Fog
10:00 AM 37.4 °F 34.9 °F 37.4 °F 100% 30.30 in 0.0 mi NE 3.5 mph - N/A Fog Fog
10:22 AM 37.4 °F 34.9 °F 37.4 °F 100% 30.30 in 0.1 mi East 3.5 mph - N/A Fog Fog
10:31 AM 37.4 °F - 37.4 °F 100% 30.30 in 0.2 mi East 2.3 mph - N/A Fog Fog
10:33 AM 37.4 °F - 37.4 °F 100% 30.31 in 0.4 mi SE 2.3 mph - N/A Fog Fog
11:00 AM 39.2 °F - 37.4 °F 93% 30.32 in 0.4 mi South 2.3 mph - N/A Fog Fog
11:39 AM 39.2 °F 37.0 °F 39.2 °F 100% 30.30 in 0.5 mi East 3.5 mph - N/A Fog Fog
11:48 AM 39.2 °F - 39.2 °F 100% 30.30 in 1.0 mi Calm Calm - N/A   Overcast
11:55 AM 39.2 °F - 39.2 °F 100% 30.30 in 1.5 mi Variable 2.3 mph - N/A   Overcast
12:00 PM 39.2 °F - 39.2 °F 100% 30.30 in 1.8 mi Calm Calm - N/A   Overcast
12:32 PM 39.2 °F - 39.2 °F 100% 30.29 in 3.0 mi Calm Calm - N/A   Overcast
12:34 PM 39.2 °F - 39.2 °F 100% 30.29 in 3.0 mi Calm Calm - N/A   Overcast
12:55 PM 39.2 °F - 39.2 °F 100% 30.28 in 8.0 mi Calm Calm - N/A   Overcast
1:00 PM 39.2 °F 37.0 °F 39.2 °F 100% 30.27 in 8.0 mi East 3.5 mph - N/A   Overcast
2:00 PM 42.8 °F 40.1 °F 39.2 °F 87% 30.25 in 15.0 mi ESE 4.6 mph - N/A   Overcast
3:00 PM 41.0 °F - 39.2 °F 93% 30.26 in 15.0 mi WSW 2.3 mph - N/A   Overcast
4:00 PM 43 °F - 38 °F 76% 30.23 in 15 mi East 8.1 mph - -   Partly Cloudy
4:00 PM 42.8 °F 37.5 °F 37.4 °F 81% 30.22 in 15.0 mi East 9.2 mph - N/A   Overcast
5:00 PM 41.0 °F 37.1 °F 39.2 °F 93% 30.28 in 15.0 mi SSW 5.8 mph - N/A   Overcast
6:00 PM 41.0 °F 35.2 °F 39.2 °F 93% 30.28 in 15.0 mi NE 9.2 mph - N/A   Overcast
7:00 PM 42.8 °F - 37.4 °F 81% 30.29 in 15.0 mi ENE 2.3 mph - N/A   Overcast
8:00 PM 42.8 °F 39.3 °F 37.4 °F 81% 30.28 in 15.0 mi South 5.8 mph - N/A   Overcast
9:00 PM 41.0 °F 36.4 °F 37.4 °F 87% 30.30 in 15.0 mi SE 6.9 mph - N/A   Mostly Cloudy
10:00 PM 41 °F - 37 °F 80% 30.32 in 15 mi ENE 5.8 mph - -   Scattered Clouds
10:00 PM 41.0 °F 36.4 °F 37.4 °F 87% 30.32 in 15.0 mi ENE 6.9 mph - N/A   Mostly Cloudy
11:00 PM 41.0 °F 38.0 °F 37.4 °F 87% 30.34 in 15.0 mi NE 4.6 mph - N/A   Overcast